sat.trackr.live / text

‹ back to catalog

STARLINK-35969

NORAD 66523 · 2025-265H

PAYLOAD ACTIVE UNKNOWN

§ Identity

Operator
Country
US
Launch date
2025-11-19
Launch site
AFETR
Launch vehicle
Mass (kg)
RCS (m²)

Purposes: comms

External: N2YO · Heavens-Above · Gunter

§ Orbital elements

Epoch: 2026-05-25T04:31:34.760064Z

Period
94.27 min
Inclination
42.9991°
Eccentricity
0.0000853
Mean motion
15.27588923 rev/d
Perigee alt
482.4 km
Apogee alt
483.6 km
Semi-major
6,861.2 km
B*
7.6025e-4
RAAN
205.8482°
Arg perigee
268.2397°
Mean anomaly
91.8356°
Rev number
2,881

§ Raw data

STARLINK-359691 66523U 25265H   26145.18859676  .00020723  00000+0  76025-3 0  99962 66523  42.9991 205.8482 0000853 268.2397  91.8356 15.27588923 28811

JSON: /api/v1/satellites/66523 · /tle

For live sub-satellite position, see the globe view (requires WebGL).

§ Visibility from observer

Set your observer location to see the next 7 days of passes ≥ 10°. The values pass through the URL so the page stays shareable.

No JS? Fill the form by hand. The geolocation button needs JavaScript.